RYR45TM EGSS-EDDH

Flight info

Callsign RYR45TM
Flight time 1h 2m
Altitude 37000
Route CLN P44 SOMVA DCT MAVAS DCT VALAM DCT GASTU DCT OSTOR T904 RIBSO RIBSO3P
Aircraft B738/M-SDE2E3FGHIRWXY/LB1

Departure

Time 2026-05-03 21:48
Airport London Stansted Airport (EGSS)

Arrival

Time 2026-05-03 22:50
Airport Hamburg Helmut Schmidt Airport (EDDH)
Time Latitude Longitude Altitude Speed Heading
2026-05-03 21:29 51.89431 0.25810 351 ft 0 kts 159°
2026-05-03 21:38 51.89439 0.25805 361 ft 4 kts 160°
2026-05-03 21:39 51.89465 0.25791 351 ft 4 kts 167°
2026-05-03 21:39 51.89491 0.25784 353 ft 4 kts 179°
2026-05-03 21:39 51.89516 0.25790 353 ft 4 kts 212°
2026-05-03 21:39 51.89523 0.25797 354 ft 0 kts 223°
2026-05-03 21:41 51.89498 0.25760 354 ft 10 kts 223°
2026-05-03 21:42 51.89431 0.25659 355 ft 13 kts 223°
2026-05-03 21:42 51.89393 0.25544 360 ft 13 kts 283°
2026-05-03 21:42 51.89412 0.25415 357 ft 12 kts 245°
2026-05-03 21:42 51.89350 0.25310 351 ft 14 kts 224°
2026-05-03 21:43 51.89271 0.25189 355 ft 17 kts 232°
2026-05-03 21:43 51.89196 0.25004 354 ft 22 kts 232°
2026-05-03 21:43 51.89071 0.24821 358 ft 26 kts 222°
2026-05-03 21:43 51.88943 0.24631 358 ft 24 kts 222°
2026-05-03 21:44 51.88823 0.24451 350 ft 24 kts 223°
2026-05-03 21:44 51.88701 0.24267 349 ft 25 kts 223°
2026-05-03 21:44 51.88571 0.24069 338 ft 25 kts 223°
2026-05-03 21:44 51.88445 0.23883 343 ft 24 kts 223°
2026-05-03 21:45 51.88328 0.23707 349 ft 23 kts 223°
2026-05-03 21:45 51.88218 0.23543 345 ft 22 kts 223°
2026-05-03 21:45 51.88107 0.23377 336 ft 21 kts 223°
2026-05-03 21:45 51.87999 0.23215 335 ft 21 kts 223°
2026-05-03 21:46 51.87893 0.23057 335 ft 20 kts 223°
2026-05-03 21:46 51.87824 0.22938 336 ft 7 kts 258°
2026-05-03 21:46 51.87832 0.22861 334 ft 9 kts 302°
2026-05-03 21:46 51.87874 0.22783 331 ft 13 kts 312°
2026-05-03 21:47 51.87941 0.22688 330 ft 13 kts 346°
2026-05-03 21:47 51.88021 0.22756 331 ft 28 kts 41°
2026-05-03 21:47 51.88350 0.23253 337 ft 100 kts 43°
2026-05-03 21:47 51.89016 0.24252 357 ft 158 kts 43°
2026-05-03 21:48 51.89833 0.25523 965 ft 164 kts 44°
2026-05-03 21:48 51.90655 0.26873 1685 ft 173 kts 47°
2026-05-03 21:48 51.91355 0.28490 2324 ft 187 kts 64°
2026-05-03 21:48 51.91690 0.30673 2647 ft 211 kts 89°
2026-05-03 21:49 51.91338 0.33021 3108 ft 223 kts 115°
2026-05-03 21:49 51.90589 0.35406 3309 ft 252 kts 116°
2026-05-03 21:49 51.89785 0.38047 3826 ft 267 kts 116°
2026-05-03 21:49 51.88967 0.40786 4611 ft 273 kts 116°
2026-05-03 21:50 51.88143 0.43554 5502 ft 274 kts 116°
2026-05-03 21:50 51.87314 0.46364 6314 ft 278 kts 117°
2026-05-03 21:50 51.86478 0.49208 7109 ft 282 kts 117°
2026-05-03 21:50 51.85635 0.52079 7898 ft 285 kts 117°
2026-05-03 21:51 51.84780 0.54990 8674 ft 288 kts 117°
2026-05-03 21:51 51.83914 0.57933 9430 ft 292 kts 117°
2026-05-03 21:51 51.83202 0.61031 10182 ft 298 kts 105°
2026-05-03 21:51 51.82930 0.64460 10473 ft 322 kts 92°
2026-05-03 21:52 51.83046 0.68182 10866 ft 338 kts 87°
2026-05-03 21:52 51.83224 0.72009 11517 ft 344 kts 87°
2026-05-03 21:52 51.83401 0.75872 12293 ft 346 kts 88°
2026-05-03 21:52 51.83560 0.79772 13060 ft 349 kts 88°
2026-05-03 21:53 51.83709 0.83712 13767 ft 354 kts 88°
2026-05-03 21:53 51.83853 0.87718 14477 ft 359 kts 89°
2026-05-03 21:53 51.83997 0.91753 15215 ft 363 kts 89°
2026-05-03 21:53 51.84142 0.95868 15954 ft 367 kts 89°
2026-05-03 21:54 51.84288 1.00012 16622 ft 372 kts 89°
2026-05-03 21:54 51.84436 1.04228 17287 ft 377 kts 89°
2026-05-03 21:54 51.84584 1.08476 17989 ft 380 kts 89°
2026-05-03 21:54 51.84733 1.12770 18637 ft 385 kts 88°
2026-05-03 21:55 51.85266 1.17057 19192 ft 396 kts 70°
2026-05-03 21:55 51.86358 1.21106 19838 ft 399 kts 67°
2026-05-03 21:55 51.87517 1.25216 20422 ft 404 kts 67°
2026-05-03 21:55 51.88684 1.29373 21000 ft 408 kts 67°
2026-05-03 21:56 51.89808 1.33439 21537 ft 412 kts 68°
2026-05-03 21:56 51.90927 1.37550 22051 ft 417 kts 68°
2026-05-03 21:56 51.92094 1.41878 22610 ft 420 kts 68°
2026-05-03 21:56 51.93261 1.46236 23154 ft 423 kts 69°
2026-05-03 21:57 51.94383 1.50444 23615 ft 428 kts 69°
2026-05-03 21:57 51.95491 1.54604 24062 ft 432 kts 69°
2026-05-03 21:57 51.96669 1.59035 24546 ft 435 kts 69°
2026-05-03 21:57 51.97869 1.63552 25026 ft 438 kts 69°
2026-05-03 21:58 51.98679 1.66606 25339 ft 440 kts 69°
2026-05-03 21:58 52.00286 1.72104 25878 ft 446 kts 64°
2026-05-03 21:58 52.01278 1.75070 26163 ft 449 kts 63°
2026-05-03 21:58 52.02806 1.79452 26614 ft 451 kts 62°
2026-05-03 21:59 52.04352 1.83875 27017 ft 454 kts 63°
2026-05-03 21:59 52.05896 1.88390 27407 ft 458 kts 63°
2026-05-03 21:59 52.07421 1.92933 27816 ft 460 kts 64°
2026-05-03 21:59 52.08940 1.97507 28219 ft 463 kts 64°
2026-05-03 22:00 52.10444 2.02074 28597 ft 465 kts 64°
2026-05-03 22:00 52.11962 2.06697 28970 ft 468 kts 64°
2026-05-03 22:00 52.13479 2.11331 29298 ft 471 kts 64°
2026-05-03 22:00 52.15025 2.16057 29657 ft 473 kts 64°
2026-05-03 22:01 52.16566 2.20771 29995 ft 475 kts 64°
2026-05-03 22:01 52.18117 2.25523 30317 ft 478 kts 64°
2026-05-03 22:01 52.19659 2.30251 30619 ft 480 kts 64°
2026-05-03 22:01 52.21248 2.35134 30953 ft 482 kts 64°
2026-05-03 22:02 52.22797 2.39906 31279 ft 483 kts 64°
2026-05-03 22:02 52.24386 2.44810 31617 ft 484 kts 65°
2026-05-03 22:02 52.25953 2.49658 32022 ft 482 kts 65°
2026-05-03 22:02 52.27515 2.54495 32495 ft 479 kts 65°
2026-05-03 22:03 52.29063 2.59297 32889 ft 478 kts 65°
2026-05-03 22:03 52.30568 2.64140 33225 ft 476 kts 69°
2026-05-03 22:03 52.31690 2.69202 33551 ft 473 kts 77°
2026-05-03 22:03 52.32579 2.74286 33913 ft 471 kts 78°
2026-05-03 22:04 52.33440 2.79414 34268 ft 470 kts 78°
2026-05-03 22:04 52.34294 2.84489 34581 ft 470 kts 78°
2026-05-03 22:04 52.35169 2.89597 34828 ft 471 kts 77°
2026-05-03 22:04 52.36059 2.94714 35064 ft 472 kts 77°
2026-05-03 22:05 52.36957 2.99836 35348 ft 472 kts 77°
2026-05-03 22:05 52.37862 3.04986 35688 ft 470 kts 77°
2026-05-03 22:05 52.38762 3.10130 35947 ft 470 kts 77°
2026-05-03 22:05 52.39660 3.15252 36166 ft 471 kts 76°
2026-05-03 22:06 52.40830 3.20280 36386 ft 475 kts 67°
2026-05-03 22:06 52.42257 3.25155 36660 ft 474 kts 66°
2026-05-03 22:06 52.43730 3.30003 36900 ft 474 kts 65°
2026-05-03 22:06 52.45215 3.34853 36928 ft 478 kts 65°
2026-05-03 22:07 52.48163 3.44595 36920 ft 474 kts 66°
2026-05-03 22:07 52.51018 3.54216 36929 ft 465 kts 66°
2026-05-03 22:08 52.53816 3.63759 36939 ft 463 kts 66°
2026-05-03 22:08 52.56592 3.73280 36934 ft 461 kts 66°
2026-05-03 22:09 52.59354 3.82778 36937 ft 461 kts 66°
2026-05-03 22:10 52.63488 3.97064 36939 ft 461 kts 66°
2026-05-03 22:10 52.66231 4.06587 36937 ft 462 kts 66°
2026-05-03 22:11 52.68982 4.16179 36939 ft 464 kts 67°
2026-05-03 22:11 52.71720 4.25767 36939 ft 466 kts 67°
2026-05-03 22:12 52.74495 4.35519 36938 ft 467 kts 67°
2026-05-03 22:12 52.77254 4.45257 36934 ft 469 kts 67°
2026-05-03 22:13 52.80009 4.55028 36937 ft 470 kts 67°
2026-05-03 22:13 52.82763 4.64831 36935 ft 470 kts 67°
2026-05-03 22:14 52.85510 4.74647 36934 ft 470 kts 67°
2026-05-03 22:14 52.88230 4.84411 36933 ft 470 kts 67°
2026-05-03 22:15 52.90958 4.94234 36934 ft 469 kts 68°
2026-05-03 22:15 52.93672 5.04065 36933 ft 469 kts 68°
2026-05-03 22:16 52.96371 5.13879 36934 ft 467 kts 68°
2026-05-03 22:16 52.99058 5.23691 36938 ft 466 kts 68°
2026-05-03 22:17 53.01733 5.33496 36937 ft 466 kts 68°
2026-05-03 22:17 53.04360 5.43331 36934 ft 465 kts 70°
2026-05-03 22:18 53.06779 5.53302 36936 ft 465 kts 71°
2026-05-03 22:18 53.09151 5.63307 36938 ft 465 kts 71°
2026-05-03 22:19 53.11537 5.73313 36934 ft 465 kts 71°
2026-05-03 22:19 53.13931 5.83324 36936 ft 465 kts 71°
2026-05-03 22:20 53.16322 5.93342 36935 ft 465 kts 71°
2026-05-03 22:20 53.18706 6.03374 36935 ft 466 kts 71°
2026-05-03 22:21 53.21079 6.13410 36934 ft 465 kts 71°
2026-05-03 22:21 53.23446 6.23469 36919 ft 466 kts 71°
2026-05-03 22:22 53.25803 6.33541 36929 ft 466 kts 71°
2026-05-03 22:22 53.28152 6.43622 36911 ft 466 kts 71°
2026-05-03 22:23 53.30497 6.53728 36920 ft 466 kts 72°
2026-05-03 22:23 53.32833 6.63854 36773 ft 469 kts 72°
2026-05-03 22:23 53.34008 6.68960 36307 ft 471 kts 72°
2026-05-03 22:24 53.35181 6.74066 35796 ft 469 kts 72°
2026-05-03 22:24 53.36347 6.79161 35226 ft 469 kts 72°
2026-05-03 22:24 53.37513 6.84270 34645 ft 470 kts 72°
2026-05-03 22:24 53.38679 6.89389 34050 ft 471 kts 73°
2026-05-03 22:25 53.39846 6.94528 33443 ft 473 kts 73°
2026-05-03 22:25 53.41015 6.99687 32820 ft 474 kts 73°
2026-05-03 22:25 53.42187 7.04869 32179 ft 476 kts 73°
2026-05-03 22:25 53.43360 7.10067 31600 ft 476 kts 73°
2026-05-03 22:26 53.44525 7.15240 31140 ft 473 kts 73°
2026-05-03 22:26 53.45684 7.20393 30674 ft 470 kts 74°
2026-05-03 22:26 53.46832 7.25513 30212 ft 468 kts 74°
2026-05-03 22:26 53.47956 7.30543 29761 ft 465 kts 74°
2026-05-03 22:27 53.49084 7.35602 29296 ft 462 kts 74°
2026-05-03 22:27 53.50205 7.40639 28827 ft 459 kts 74°
2026-05-03 22:27 53.51313 7.45639 28362 ft 456 kts 74°
2026-05-03 22:27 53.52416 7.50627 27896 ft 453 kts 74°
2026-05-03 22:28 53.53507 7.55572 27434 ft 450 kts 74°
2026-05-03 22:28 53.54592 7.60498 26974 ft 448 kts 74°
2026-05-03 22:28 53.55667 7.65395 26510 ft 445 kts 74°
2026-05-03 22:28 53.56732 7.70260 26053 ft 442 kts 74°
2026-05-03 22:29 53.57791 7.75102 25597 ft 439 kts 75°
2026-05-03 22:29 53.58841 7.79916 25146 ft 437 kts 75°
2026-05-03 22:29 53.59880 7.84695 24688 ft 434 kts 75°
2026-05-03 22:29 53.60915 7.89463 24236 ft 432 kts 75°
2026-05-03 22:30 53.61941 7.94195 23788 ft 429 kts 75°
2026-05-03 22:30 53.62959 7.98905 23341 ft 426 kts 75°
2026-05-03 22:30 53.63945 8.03589 22894 ft 423 kts 76°
2026-05-03 22:30 53.64862 8.08286 22451 ft 420 kts 77°
2026-05-03 22:31 53.65742 8.12957 22011 ft 417 kts 77°
2026-05-03 22:31 53.66608 8.17596 21572 ft 414 kts 77°
2026-05-03 22:31 53.67470 8.22209 21135 ft 411 kts 77°
2026-05-03 22:31 53.68331 8.26794 20703 ft 408 kts 76°
2026-05-03 22:32 53.69188 8.31346 20275 ft 406 kts 76°
2026-05-03 22:32 53.70038 8.35869 19847 ft 403 kts 76°
2026-05-03 22:32 53.70884 8.40348 19424 ft 399 kts 76°
2026-05-03 22:32 53.71723 8.44792 18995 ft 396 kts 76°
2026-05-03 22:33 53.72546 8.49208 18579 ft 393 kts 76°
2026-05-03 22:33 53.73370 8.53590 18160 ft 390 kts 75°
2026-05-03 22:33 53.74185 8.57949 17747 ft 388 kts 76°
2026-05-03 22:33 53.74993 8.62293 17347 ft 385 kts 75°
2026-05-03 22:34 53.75791 8.66593 16937 ft 383 kts 75°
2026-05-03 22:34 53.76584 8.70878 16530 ft 381 kts 75°
2026-05-03 22:34 53.77372 8.75136 16128 ft 378 kts 75°
2026-05-03 22:34 53.78153 8.79368 15726 ft 376 kts 75°
2026-05-03 22:35 53.78928 8.83574 15328 ft 374 kts 75°
2026-05-03 22:35 53.79698 8.87765 14929 ft 371 kts 75°
2026-05-03 22:35 53.80460 8.91923 14531 ft 369 kts 75°
2026-05-03 22:35 53.81218 8.96061 14135 ft 367 kts 75°
2026-05-03 22:36 53.81969 9.00175 13749 ft 365 kts 75°
2026-05-03 22:36 53.82630 9.04294 13349 ft 360 kts 84°
2026-05-03 22:36 53.82794 9.08471 12971 ft 352 kts 97°
2026-05-03 22:36 53.82578 9.12581 12612 ft 349 kts 100°
2026-05-03 22:37 53.82320 9.16602 12227 ft 347 kts 101°
2026-05-03 22:37 53.82068 9.20653 11843 ft 346 kts 101°
2026-05-03 22:37 53.81829 9.24692 11457 ft 344 kts 100°
2026-05-03 22:37 53.81599 9.28712 11072 ft 342 kts 101°
2026-05-03 22:38 53.81381 9.32718 10687 ft 342 kts 98°
2026-05-03 22:38 53.81536 9.36742 10401 ft 344 kts 83°
2026-05-03 22:38 53.82021 9.40644 10261 ft 335 kts 82°
2026-05-03 22:38 53.82513 9.44450 10106 ft 327 kts 82°
2026-05-03 22:39 53.82987 9.48164 9959 ft 319 kts 83°
2026-05-03 22:39 53.83441 9.51791 9771 ft 313 kts 83°
2026-05-03 22:39 53.83880 9.55389 9488 ft 311 kts 83°
2026-05-03 22:39 53.84311 9.58967 9214 ft 310 kts 83°
2026-05-03 22:40 53.84739 9.62536 8935 ft 310 kts 84°
2026-05-03 22:40 53.85167 9.66151 8655 ft 315 kts 84°
2026-05-03 22:40 53.85601 9.69803 8482 ft 316 kts 83°
2026-05-03 22:40 53.86032 9.73453 8331 ft 316 kts 84°
2026-05-03 22:41 53.86464 9.77108 8191 ft 315 kts 84°
2026-05-03 22:41 53.86768 9.80750 8021 ft 310 kts 98°
2026-05-03 22:41 53.86558 9.84344 7821 ft 306 kts 105°
2026-05-03 22:41 53.86267 9.87936 7541 ft 308 kts 105°
2026-05-03 22:42 53.85977 9.91519 7249 ft 306 kts 105°
2026-05-03 22:42 53.85700 9.95079 6969 ft 304 kts 104°
2026-05-03 22:42 53.85435 9.98632 6689 ft 303 kts 104°
2026-05-03 22:42 53.85177 10.02177 6406 ft 303 kts 104°
2026-05-03 22:43 53.84923 10.05703 6105 ft 301 kts 103°
2026-05-03 22:43 53.84671 10.09204 5849 ft 299 kts 103°
2026-05-03 22:43 53.84417 10.12688 5585 ft 298 kts 103°
2026-05-03 22:43 53.84165 10.16152 5336 ft 294 kts 104°
2026-05-03 22:44 53.83547 10.19308 5154 ft 274 kts 130°
2026-05-03 22:44 53.82789 10.20953 4985 ft 262 kts 144°
2026-05-03 22:44 53.81447 10.22886 4738 ft 248 kts 150°
2026-05-03 22:44 53.80129 10.24704 4491 ft 241 kts 149°
2026-05-03 22:45 53.78835 10.26465 4264 ft 234 kts 154°
2026-05-03 22:45 53.77442 10.27245 3990 ft 198 kts 195°
2026-05-03 22:45 53.76385 10.26231 3836 ft 167 kts 240°
2026-05-03 22:45 53.75782 10.24506 3680 ft 178 kts 233°
2026-05-03 22:46 53.74945 10.22981 3469 ft 175 kts 233°
2026-05-03 22:46 53.74199 10.21418 3245 ft 169 kts 235°
2026-05-03 22:46 53.73471 10.19903 3026 ft 165 kts 234°
2026-05-03 22:46 53.72752 10.18436 2816 ft 160 kts 234°
2026-05-03 22:47 53.72051 10.17018 2604 ft 156 kts 233°
2026-05-03 22:47 53.71364 10.15634 2398 ft 152 kts 233°
2026-05-03 22:47 53.70681 10.14256 2208 ft 155 kts 232°
2026-05-03 22:47 53.69983 10.12852 2001 ft 157 kts 231°
2026-05-03 22:48 53.69276 10.11426 1786 ft 159 kts 231°
2026-05-03 22:48 53.68565 10.09992 1578 ft 159 kts 231°
2026-05-03 22:48 53.67853 10.08555 1361 ft 160 kts 230°
2026-05-03 22:48 53.67131 10.07100 1151 ft 163 kts 230°
2026-05-03 22:49 53.66400 10.05624 935 ft 165 kts 230°
2026-05-03 22:49 53.65672 10.04155 717 ft 160 kts 230°
2026-05-03 22:49 53.64983 10.02763 556 ft 148 kts 230°
2026-05-03 22:49 53.64343 10.01458 353 ft 146 kts 231°
2026-05-03 22:50 53.63698 10.00151 112 ft 143 kts 230°
2026-05-03 22:50 53.63114 9.98978 50 ft 107 kts 230°
2026-05-03 22:50 53.62776 9.98295 52 ft 48 kts 230°
2026-05-03 22:50 53.62574 9.97887 51 ft 33 kts 230°
2026-05-03 22:51 53.62467 9.97799 48 ft 16 kts 155°
2026-05-03 22:51 53.62428 9.97934 50 ft 13 kts 86°
2026-05-03 22:51 53.62451 9.98077 46 ft 13 kts 69°
2026-05-03 22:51 53.62504 9.98191 50 ft 12 kts 50°
2026-05-03 22:52 53.62560 9.98296 50 ft 12 kts 49°
2026-05-03 22:52 53.62613 9.98402 50 ft 12 kts 50°
2026-05-03 22:52 53.62670 9.98516 50 ft 14 kts 50°
2026-05-03 22:52 53.62735 9.98649 50 ft 16 kts 50°
2026-05-03 22:53 53.62807 9.98796 50 ft 16 kts 50°
2026-05-03 22:53 53.62878 9.98941 50 ft 16 kts 50°
2026-05-03 22:53 53.62947 9.99080 48 ft 15 kts 50°
2026-05-03 22:53 53.63013 9.99212 47 ft 14 kts 50°
2026-05-03 22:54 53.63073 9.99343 50 ft 14 kts 55°
2026-05-03 22:54 53.63127 9.99473 47 ft 13 kts 55°
2026-05-03 22:54 53.63183 9.99593 50 ft 13 kts 49°
2026-05-03 22:54 53.63226 9.99720 50 ft 13 kts 89°
2026-05-03 22:55 53.63164 9.99812 50 ft 12 kts 152°
2026-05-03 22:55 53.63088 9.99878 48 ft 12 kts 153°
2026-05-03 22:55 53.63014 9.99941 50 ft 12 kts 153°
2026-05-03 22:55 53.62948 10.00013 48 ft 11 kts 115°
2026-05-03 22:56 53.62919 10.00132 50 ft 11 kts 123°
2026-05-03 22:56 53.62891 10.00208 50 ft 6 kts 122°
2026-05-03 22:56 53.62884 10.00226 50 ft 1 kts 122°